[[{"header":{"parameterUnit":"m.s-1","parameterCategory":1,"la1":30.2991,"la2":30.254,"lo1":-89.0895,"lo2":-89.0444,"dy":0.0017,"dx":0.0017,"nx":28,"ny":28,"refTime":"2023-09-29T21:00:00:Z","depth":0,"parameterNumber":2,"parameterNumberName":"U-component_of_WINDS"},"data":[0,0,0,0,0,0,0,0,0,0,0,0,0,0,0,0,0,0,0,0,0,0,0,0,0,0,0,0,0,0,0,0,0,0,0,0,0,0,0,0,0,0,0,0,0,0,0,0,0,0,0,0,0,0,0,0,0,0,-4.6141,-4.614,0,-4.609,-4.6089,-4.6089,-4.5949,-4.5946,-4.5943,-4.594,-4.5891,-4.5893,-4.5894,0,0,0,0,0,0,0,0,0,0,0,0,0,-4.6121,-4.6123,-4.6141,-4.614,-4.6139,-4.609,-4.6089,-4.6089,-4.5949,-4.5946,-4.5942,-4.5939,-4.5891,-4.5893,-4.5895,0,0,0,0,0,0,0,0,0,0,0,0,0,-4.6106,-4.6123,-4.6141,-4.6064,-4.6056,-4.609,-4.6089,-4.6088,-4.595,-4.5946,-4.5941,-4.5937,-4.589,-4.5893,-4.5895,-4.6,0,0,-4.5902,-4.5903,0,0,0,0,0,0,0,0,-4.6107,-4.6107,-4.6076,-4.6069,-4.6061,-4.6021,-4.6064,-4.6059,-4.5951,-4.5991,-4.594,-4.5935,-4.5939,-4.5937,-4.5937,-4.5997,-4.5995,-4.5902,-4.5903,-4.5904,-4.5905,0,0,0,0,0,0,0,-4.6109,-4.6109,-4.612,-4.6076,-4.6067,-4.6033,-4.6026,-4.6063,-4.5991,-4.5987,-4.5977,-4.5972,-4.5934,-4.5935,-4.5935,-4.5995,-4.5902,-4.5904,-4.5905,-4.5906,-4.6142,-4.6147,0,0,0,0,0,0,-4.612,-4.611,-4.6122,-4.6119,-4.6073,-4.6038,-4.6029,-4.6039,-4.599,-4.5978,-4.5976,-4.5966,-4.5934,-4.5932,-4.5933,-4.6055,-4.5904,-4.5907,-4.5908,-4.6137,-4.6143,-4.6149,0,0,0,0,0,0,-4.612,-4.6123,-4.6124,-4.6112,-4.611,-4.6043,-4.6054,-4.604,-4.6041,-4.5982,-4.5969,-4.5991,-4.593,-4.5929,-4.5985,-4.6051,-4.5908,-4.591,-4.6132,-4.6139,-4.6146,-4.6299,0,0,0,0,0,0,-4.612,-4.6123,-4.6161,-4.6114,-4.6111,-4.6176,-4.6058,-4.6042,-4.6045,-4.6031,-4.5992,-4.5981,-4.5926,-4.5982,-4.5987,-4.6052,-4.5911,-4.6125,-4.6135,-4.6144,-4.6288,-4.6311,-4.633,0,0,0,0,0,-4.612,-4.6206,-4.6164,-4.6166,-4.6157,-4.618,-4.6179,-4.6113,-4.6051,-4.609,-4.6052,-4.5983,-4.6043,-4.5989,-4.5993,-4.606,-4.6121,-4.6132,-4.6143,-4.6278,-4.6306,-4.633,0,0,0,0,0,0,-4.6264,-4.6199,-4.6151,-4.6224,-4.6209,-4.6157,-4.6203,-4.6144,-4.6146,-4.6133,-4.6052,-4.6045,-4.6112,-4.6091,-4.6032,-4.616,-4.6071,-4.6083,-4.6172,-4.6198,-4.6219,-4.6224,-4.5913,0,0,0,0,0,-4.6304,-4.6327,-4.6269,-4.634,-4.6334,-4.6271,-4.6278,-4.6229,-4.621,-4.6203,-4.6169,-4.6155,-4.6171,-4.6183,-4.6194,-4.6284,-4.6275,-4.6332,-4.6353,-4.6371,-4.6383,-4.6433,-4.6458,-4.6185,-4.6185,-4.6185,0,0,-4.6388,-4.6355,-4.6374,-4.6368,-4.635,-4.6378,-4.6266,-4.6299,-4.632,-4.6208,-4.6259,-4.6234,-4.6213,-4.6287,-4.6318,-4.6271,-4.6457,-4.6385,-4.6399,-4.6402,-4.6447,-4.6473,-4.6496,-4.6192,-4.6191,-4.619,0,0,-4.6554,-4.6531,-4.6588,-4.6573,-4.6547,-4.6505,-4.6519,-4.6476,-4.6455,-4.6504,-4.6422,-4.6446,-4.6474,-4.6463,-4.6462,-4.6627,-4.6565,-4.6633,-4.6745,-4.6794,-4.6816,-4.6835,-4.6897,-4.692,-4.6645,-4.6646,-4.6646,0,-4.6662,-4.6699,-4.6625,-4.6665,-4.6666,-4.6566,-4.6625,-4.6614,-4.6594,-4.6598,-4.6546,-4.6581,-4.6559,-4.6631,-4.6672,-4.6673,-4.6688,-4.6638,-4.6818,-4.6836,-4.6853,-4.6911,-4.6935,-4.6654,-4.6653,-4.6652,-4.6652,0,-4.6834,-4.6861,-4.6911,-4.6895,-4.6901,-4.695,-4.6886,-4.6901,-4.6852,-4.6816,-4.6869,-4.684,-4.6845,-4.6857,-4.6809,-4.6924,-4.6896,-4.6832,-4.6741,-4.6889,-4.6943,-4.6964,-4.6667,-4.6664,-4.6661,-4.6659,0,0,-4.709,-4.7033,-4.7053,-4.7045,-4.7011,-4.7032,-4.7078,-4.7082,-4.7098,-4.7088,-4.7127,-4.7154,-4.7096,-4.7094,-4.7044,-4.7087,-4.7224,-4.7018,-4.7016,-4.706,-4.7352,-4.7402,-4.7429,-4.7182,-4.7185,-4.7188,-4.7355,0,-4.7249,-4.7324,-4.726,-4.7347,-4.7374,-4.728,-4.732,-4.7305,-4.7273,-4.7292,-4.7256,-4.7278,-4.7198,-4.7197,-4.7234,-4.7199,-4.7282,-4.7186,-4.7219,-4.7222,-4.723,-4.7457,-4.7509,-4.7668,-4.7375,-4.7379,-4.7381,0,-4.7446,-4.7445,-4.7536,-4.7498,-4.7507,-4.7544,-4.7545,-4.7563,-4.7545,-4.7518,-4.7518,-4.7457,-4.7502,-4.7411,-4.7473,-4.741,-4.7419,-4.7405,-4.7409,-4.7412,-4.7312,-4.7468,-4.7716,-4.7741,-4.7413,-4.741,-4.7408,0,-4.7628,-4.7649,-4.7707,-4.7703,-4.766,-4.7689,-4.7673,-4.7649,-4.7657,-4.7658,-4.7662,-4.7669,-4.7673,-4.768,-4.7623,-4.7562,-4.7695,-4.7598,-4.7676,-4.7678,-4.771,-4.7709,-4.7966,-4.7713,-4.7712,-4.7712,-4.7711,0,-4.7814,-4.7874,-4.7788,-4.7824,-4.7889,-4.7816,-4.7883,-4.7857,-4.7838,-4.7868,-4.7787,-4.7818,-4.774,-4.7763,-4.7719,-4.778,-4.7781,-4.7763,-4.7751,-4.7772,-4.7775,-4.7779,-4.7768,-4.7718,-4.7717,-4.7715,-4.7714,0,-4.8029,-4.7973,-4.803,-4.7985,-4.7975,-4.8026,-4.7988,-4.8021,-4.7983,-4.8023,-4.8028,-4.7971,-4.7994,-4.7938,-4.7953,-4.7924,-4.8011,-4.798,-4.8018,-4.8009,-4.8092,-4.8087,-4.8363,-4.8397,-4.8119,-4.8122,-4.8124,0,-4.8153,-4.8196,-4.8157,-4.8171,-4.8159,-4.8183,-4.8191,-4.8121,-4.8133,-4.8117,-4.8152,-4.8169,-4.8179,-4.8222,-4.8182,-4.8194,-4.8165,-4.8261,-4.8166,-4.8187,-4.817,-4.817,-4.8175,-4.8281,-4.8285,-4.8288,-4.829,0,-4.838,-4.8351,-4.8364,-4.837,-4.8381,-4.8382,-4.8377,-4.8394,-4.832,-4.8338,-4.8361,-4.8369,-4.8385,-4.8404,-4.8408,-4.8392,-4.8331,-4.832,-4.8339,-4.8362,-4.8383,-4.8376,-4.8074,-4.8314,-4.8312,-4.831,-4.8309,-4.8308,-4.8554,-4.859,-4.8569,-4.8588,-4.8577,-4.8575,-4.8604,-4.8571,-4.8589,-4.8596,-4.8554,-4.8588,-4.8571,-4.8569,-4.8561,-4.8587,-4.8544,-4.8571,-4.8578,-4.8587,-4.8602,-4.8377,-4.8587,-4.8586,-4.8585,-4.8585,-4.8584,0,-4.878,-4.8762,-4.878,-4.8776,-4.8792,-4.8731,-4.8723,-4.8741,-4.8771,-4.876,-4.8772,-4.88,-4.8819,-4.8781,-4.8795,-4.8823,-4.8796,-4.8829,-4.8828,-4.8826,-4.8638,-4.8622,-4.8852,-4.8852,-4.8852,-4.8852,-4.8852,-4.8852,-4.89,-4.8958,-4.8927,-4.8981,-4.8962,-4.8994,-4.8995,-4.8994,-4.8985,-4.902,-4.9035,-4.901,-4.899,-4.9001,-4.9017,-4.9005,-4.9015,-4.906,-4.9039,-4.8865,-4.8839,-4.8814,-4.8798,-4.9062,-4.9062,-4.9225,-4.9227,-4.9228]},{"header":{"parameterUnit":"m.s-1","parameterCategory":1,"la1":30.2991,"la2":30.254,"lo1":-89.0895,"lo2":-89.0444,"dy":0.0017,"dx":0.0017,"nx":28,"ny":28,"refTime":"2023-09-29T21:00:00:Z","depth":0,"parameterNumber":3,"parameterNumberName":"V-component_of_WINDS"},"data":[0,0,0,0,0,0,0,0,0,0,0,0,0,0,0,0,0,0,0,0,0,0,0,0,0,0,0,0,0,0,0,0,0,0,0,0,0,0,0,0,0,0,0,0,0,0,0,0,0,0,0,0,0,0,0,0,0,0,0.794,0.7939,0,0.7885,0.7885,0.7884,0.787,0.7871,0.7871,0.7871,0.781,0.7808,0.7806,0,0,0,0,0,0,0,0,0,0,0,0,0,0.8026,0.8024,0.794,0.7939,0.7938,0.7885,0.7885,0.7884,0.787,0.7871,0.7871,0.7872,0.781,0.7808,0.7806,0,0,0,0,0,0,0,0,0,0,0,0,0,0.7982,0.8024,0.794,0.7925,0.7923,0.7886,0.7885,0.7884,0.787,0.7871,0.7871,0.7872,0.7811,0.7808,0.7805,0.7776,0,0,0.7796,0.7795,0,0,0,0,0,0,0,0,0.7984,0.7978,0.7928,0.7926,0.7924,0.7885,0.7893,0.7847,0.787,0.789,0.7872,0.7872,0.7834,0.7829,0.7818,0.7773,0.7771,0.7796,0.7794,0.7793,0.7792,0,0,0,0,0,0,0,0.7987,0.7981,0.7918,0.7927,0.7925,0.792,0.7914,0.7884,0.786,0.7889,0.7887,0.7882,0.7833,0.7821,0.7816,0.777,0.7796,0.7794,0.7792,0.7791,0.7698,0.7697,0,0,0,0,0,0,0.7994,0.7983,0.792,0.7916,0.7956,0.7918,0.7911,0.7897,0.786,0.7855,0.7881,0.7881,0.7825,0.782,0.7814,0.7776,0.7793,0.779,0.7789,0.7698,0.7697,0.7697,0,0,0,0,0,0,0.7996,0.7988,0.7922,0.795,0.7941,0.7916,0.79,0.7896,0.7883,0.7854,0.7849,0.7873,0.7826,0.7818,0.7786,0.7774,0.7789,0.7786,0.7699,0.7698,0.7697,0.7702,0,0,0,0,0,0,0.7998,0.7989,0.7979,0.795,0.7939,0.7896,0.7899,0.7894,0.7879,0.7878,0.7846,0.7841,0.7825,0.779,0.7783,0.777,0.7784,0.77,0.7699,0.7697,0.7702,0.7701,0.77,0,0,0,0,0,0.8001,0.7981,0.7978,0.7971,0.7927,0.7896,0.789,0.7874,0.7878,0.7867,0.7848,0.7842,0.7777,0.7787,0.7779,0.7765,0.7701,0.7699,0.7697,0.7703,0.7701,0.77,0,0,0,0,0,0,0.8007,0.7977,0.7973,0.7944,0.7923,0.7894,0.7879,0.7873,0.7849,0.7849,0.7829,0.7822,0.7791,0.7775,0.7787,0.7734,0.7739,0.7735,0.7746,0.7744,0.7742,0.7746,0.7781,0,0,0,0,0,0.8006,0.7985,0.7959,0.7935,0.7925,0.7904,0.789,0.788,0.7857,0.7847,0.7826,0.7802,0.7776,0.7759,0.7734,0.7701,0.7692,0.7687,0.7685,0.7685,0.7681,0.7661,0.7658,0.7692,0.7692,0.7692,0,0,0.8001,0.7982,0.797,0.7936,0.7918,0.7896,0.7896,0.7872,0.7855,0.7843,0.7811,0.7795,0.7767,0.7734,0.7718,0.7719,0.767,0.7683,0.7682,0.7679,0.7659,0.7656,0.7653,0.7691,0.7691,0.7691,0,0,0.7981,0.7965,0.7943,0.7926,0.79,0.7887,0.7882,0.7854,0.7843,0.7812,0.7802,0.778,0.7736,0.7716,0.77,0.7674,0.7666,0.7666,0.7658,0.7638,0.7636,0.7633,0.7622,0.7618,0.7663,0.7663,0.7663,0,0.7977,0.7945,0.7932,0.7908,0.7893,0.7884,0.786,0.7844,0.781,0.7799,0.7802,0.7747,0.7727,0.7689,0.7683,0.7671,0.7662,0.7668,0.7638,0.7635,0.7632,0.7621,0.7617,0.7663,0.7663,0.7663,0.7663,0,0.7941,0.7919,0.7904,0.7874,0.7857,0.7833,0.7815,0.78,0.7792,0.7777,0.7745,0.7721,0.7691,0.7681,0.7672,0.7641,0.7643,0.7642,0.7645,0.7629,0.7618,0.7614,0.7663,0.7663,0.7663,0.7663,0,0,0.7921,0.7886,0.788,0.7866,0.7838,0.7819,0.7795,0.7767,0.7753,0.7731,0.7709,0.7673,0.7672,0.7654,0.7643,0.7626,0.7604,0.7627,0.7626,0.7622,0.7567,0.7566,0.7562,0.76,0.7599,0.7599,0.7568,0,0.7896,0.7854,0.7842,0.7806,0.7784,0.7776,0.7754,0.7734,0.772,0.7698,0.7681,0.7656,0.7657,0.7646,0.763,0.7611,0.7593,0.7613,0.7577,0.7576,0.7582,0.7556,0.7555,0.7528,0.7564,0.7564,0.7563,0,0.786,0.7839,0.7802,0.7776,0.7766,0.7748,0.7721,0.7701,0.7677,0.7667,0.7648,0.7639,0.7611,0.7618,0.7579,0.7593,0.7578,0.7566,0.7565,0.7559,0.7567,0.7548,0.7519,0.7514,0.7557,0.7557,0.7558,0,0.7848,0.781,0.7782,0.7771,0.7741,0.7727,0.7714,0.7691,0.7675,0.7651,0.764,0.7613,0.7597,0.7576,0.7558,0.7565,0.752,0.7526,0.7509,0.751,0.7498,0.7499,0.7464,0.7492,0.7492,0.7492,0.7492,0,0.7819,0.7796,0.7776,0.7759,0.7732,0.7718,0.7692,0.7677,0.7657,0.7635,0.7626,0.7606,0.7586,0.7562,0.7548,0.7517,0.751,0.75,0.7496,0.75,0.7501,0.7488,0.7488,0.7491,0.7491,0.7492,0.7492,0,0.7799,0.7785,0.7754,0.7729,0.7722,0.7704,0.7681,0.7663,0.765,0.7622,0.7615,0.7593,0.7565,0.7546,0.751,0.75,0.7465,0.7463,0.7474,0.7472,0.7456,0.7457,0.741,0.7402,0.7437,0.7437,0.7437,0,0.7781,0.7764,0.7737,0.7723,0.771,0.7687,0.7671,0.7657,0.7641,0.7612,0.7597,0.7569,0.7545,0.75,0.7479,0.7451,0.7447,0.7433,0.7442,0.7446,0.7444,0.7444,0.7442,0.743,0.743,0.7429,0.7429,0,0.775,0.7744,0.7723,0.7699,0.7681,0.7661,0.764,0.7629,0.7611,0.7593,0.7565,0.7547,0.7511,0.7482,0.7452,0.7436,0.7428,0.7427,0.7421,0.7423,0.7429,0.7424,0.7467,0.7427,0.7428,0.7428,0.7428,0.7428,0.7729,0.7712,0.7691,0.7667,0.7651,0.7633,0.7615,0.76,0.7577,0.7548,0.754,0.7511,0.7486,0.7446,0.7429,0.7405,0.7406,0.7398,0.7396,0.7393,0.7392,0.7436,0.7399,0.7399,0.7399,0.7399,0.7399,0,0.7695,0.7682,0.766,0.7633,0.7614,0.7613,0.759,0.7574,0.7548,0.7528,0.7505,0.7473,0.7445,0.7423,0.7394,0.7378,0.7374,0.7371,0.737,0.7366,0.7394,0.7401,0.7374,0.7374,0.7374,0.7374,0.7374,0.7374,0.7676,0.7647,0.7639,0.7602,0.7588,0.7561,0.7548,0.753,0.7513,0.7478,0.7456,0.7443,0.742,0.739,0.7364,0.7358,0.7346,0.7343,0.7336,0.7362,0.7365,0.7367,0.7373,0.7342,0.7342,0.7311,0.7311,0.731]}]]